Tracking 31027 objects as of 19-Jul-2025
HD Live streaming from Space Station
objects crossing your sky now

CZ-3C DEB

Track CZ-3C DEB now!


NORAD ID: 40178
Int'l Code: 2010-057AG
Perigee: 777.0 km
Apogee: 38,029.7 km
Inclination: 19.6 °
Period: 686.3 minutes
Semi major axis: 25774 km
RCS: Unknown
Launch date: October 31, 2010
Source: People's Republic of China (PRC)
Launch site: Xichang Space Center, China (XSC)

Note: This is SATELLITE DEBRIS
Your satellite tracking list
STARLINK-31879
Track 1 satellite(s)




NASA's NSSDC Master Catalog

Two Line Element Set (TLE):
1 40178U 10057AG  25191.20776417 -.00000860  00000-0 -37718-1 0  9998
2 40178  19.5979  34.5018 7226712  21.6090  44.5776  2.09807809 24998
Source of the keplerian elements: AFSPC